Regional Weather Roundup
Issued by NWS Upton, NY

Current Version | Previous Version | Graphics & Text | Print | Product List | Glossary Off
Versions: 1 2 3 4 5 6 7 8 9 10 11 12 13 14 15 16 17 18 19 20 21 22 23 24 25 26 27
000 ASUS41 KOKX 251305 RWROKX Regional Weather Roundup National Weather Service New York NY 800 AM EST SUN FEB 25 2018 Note: "FAIR" indicates few or no clouds below 12,000 feet with no significant weather and/or obstructions to visibility. NYZ071-072-176-178-NJZ106-104-251400- New York City Metro Area CITY SKY/WX TMP DP RH WIND PRES REMARKS Central Park RAIN 41 40 96 VRB6 30.13F FOG Bronx Bot Gard N/A 37 37 100 N1 30.12S Bronx Lehman C N/A 39 37 93 E12 N/A WCI 32 LaGuardia Arpt LGT RAIN 41 38 89 NE14 30.12S FOG Queens College N/A 41 39 93 E12G24 N/A Kennedy Intl LGT RAIN 42 41 96 E18G29 30.12S FOG Breezy Point N/A 41 N/A N/A E16G24 N/A Brooklyn Coll N/A 43 39 87 E14 N/A Staten Island N/A 43 39 87 E10 N/A Newark/Liberty RAIN 43 42 97 E13 30.11R FOG Teterboro RAIN 41 39 93 NE10G17 30.11R FOG $$ NYZ177-179-078>081-251400- Long Island New York CITY SKY/WX TMP DP RH WIND PRES REMARKS Jones Beach N/A 41 N/A N/A E24G31 N/A Wantagh N/A 41 39 93 E14G28 N/A Hempstead N/A 41 39 93 E12 30.13F Matinecock Pt N/A 37 N/A N/A E21 N/A WCI 27 Farmingdale HVY RAIN 42 39 89 E17G29 30.10F FOG MacArthur/ISP RAIN 42 40 92 E16G24 30.12R FOG Stony Brook U N/A 41 39 93 E8 N/A Shirley LGT RAIN 41 41 100 E9G18 30.14R FOG Mt Sinai Harb N/A N/A N/A N/A E8G14 N/A Westhampton LGT RAIN 41 40 96 E12G20 30.15R FOG East Hampton LGT RAIN 40 39 95 E14G22 30.14F WCI 32 Southold N/A 41 39 93 E13 N/A Montauk N/A 41 40 96 E13G23 30.14F $$ NYZ052-065-067-251400- Hudson Valley CITY SKY/WX TMP DP RH WIND PRES REMARKS White Plains LGT RAIN 39 37 92 E14G22 30.11S FOG WCI 31 Larchmont Harb N/A 37 N/A N/A NE24 N/A WCI 26 Croton On Huds N/A 41 N/A N/A E7G13 N/A Somers N/A 39 37 93 E8 N/A WCI 34 Brewster N/A 37 36 93 SE3 N/A Newburgh LGT RAIN 39 39 100 E8 30.12R FOG WCI 34 Montgomery LGT RAIN 39 37 92 E8 30.09F WCI 33 Otisville N/A 36 36 100 E5 N/A WCI 32 Warwick N/A 39 37 93 E12 N/A WCI 32 Suffern N/A 39 37 93 E5 N/A Poughkeepsie LGT RAIN 39 35 86 SE5 30.12F FOG Albany LGT RAIN 36 32 85 S12G18 30.10S FOG WCI 28 $$ NJZ001-105-106-008-010-013-015-019>022-104-251400- New Jersey CITY SKY/WX TMP DP RH WIND PRES REMARKS Newark/Liberty RAIN 43 42 97 E13 30.11R FOG Teterboro RAIN 41 39 93 NE10G17 30.11R FOG Caldwell RAIN 39 39 100 E6 30.12S FOG WCI 35 Somerville LGT RAIN 44 42 93 MISG 30.05S FOG Linden HVY RAIN 43 40 90 E14G25 30.11S Perth Amboy N/A 41 N/A N/A E22G29 N/A Sussex RAIN 41 38 89 NE9 30.07F Andover N/A 40 38 93 CALM 30.05F Trenton LGT RAIN 44 42 93 E14G20 30.04F Millville FOG 46 46 100 E8 30.00S VSB 3/4 Atlantic City FOG 46 46 100 E9 30.01S VSB 1/2 Wrightstown LGT RAIN 44 43 96 E12 30.01 FOG Toms River LGT RAIN 45 43 93 E13 30.05S FOG Belmar LGT RAIN 42 41 96 E17G23 30.06S FOG $$ PAZ047>061-062-071-251400- Eastern Pennsylvania CITY SKY/WX TMP DP RH WIND PRES REMARKS Philadelphia LGT RAIN 44 42 93 NE7 30.02 FOG Allentown RAIN 42 39 89 NE8 30.02F FOG Scranton LGT RAIN 43 39 86 VRB3 29.93F $$ CTZ002-004>006-009-010-012-RIZ004-006-007-MAZ004-011-015-251400- Southern New England In CT CITY SKY/WX TMP DP RH WIND PRES REMARKS Bradley Intl LGT RAIN 36 35 96 NE7 30.19F FOG WCI 30 Hartford LGT RAIN 39 37 92 VRB3 30.18F FOG Danbury LGT RAIN 39 36 89 E13 30.13F FOG WCI 31 Wtrbury/Oxford LGT RAIN 37 35 92 E10G20 30.14F FOG WCI 30 Norwalk Harbor N/A 36 N/A N/A NE26 N/A WCI 23 Bridgeport RAIN 39 37 92 E21G29 30.14F FOG WCI 29 Meriden LGT RAIN 39 36 89 MISG 30.16F FOG New Haven LGT RAIN 42 37 82 E17G29 30.14F Chester LGT RAIN 39 37 93 E10G17 30.17R WCI 32 Groton RAIN 42 37 82 E12G21 30.19S Willimantic RAIN 39 36 89 CALM 30.24R FOG In RI CITY SKY/WX TMP DP RH WIND PRES REMARKS Providence LGT RAIN 39 38 96 E8 30.24S WCI 33 Block Island LGT RAIN 40 39 97 E16G22 30.19F FOG WCI 31 Westerly LGT RAIN 41 40 96 E16G26 30.20F FOG In MA CITY SKY/WX TMP DP RH WIND PRES REMARKS Boston LGT RAIN 38 33 82 E17 30.26F WCI 28 Worcester FRZ RAIN 31 30 96 E10G21 30.20F FOG WCI 22 Westfield LGT RAIN 35 34 96 NE6 30.19F FOG WCI 30 Provincetown LGT RAIN 38 35 89 E14 30.27 WCI 30 Nantucket LGT RAIN 41 39 93 E14 30.24F $$ ANZ330-335-338-340-345-350-353-355-251400- Coastal Marine Observations STATION/POSITION TIME SKY/WX TEMP WIND PRES VSBY WAVE AIR SEA DIR/SP/G HT/PER (UTC) (F) (DEG/KT/KT) (MB) (MI) (FT/S) NY Harb Entrance 1250 41 39 70/ 21/ 27 1018.5 5/ 5 20 S Fire Island 1250 44 43 90/ 25/ 29 1017.3 5/ 6 23 SSW Montauk P 1250 42 43 80/ 23/ 29 1020.7 5/ 5 15 E Barnegat Li 1230 42 N/A 4/ 5 Hudson Canyon 1250 49 46 130/ 12/ 17 1017.2 5/ 5 Kings Point 1236 41 38 120/ 5/ 9 1020.9 Execution Rocks NOT AVBL Western LI Sound NOT AVBL Central LI Sound 1230 39 80/ 17/ 21 N/A 3 Robbins Reef 1248 43 90/ 20/ 24 1019.9 $$ >>>>>>>>>>>>>>>>>>>>>>>>>>>> KEY <<<<<<<<<<<<<<<<<<<<<<<<<<< > < > SKY/WX - Sky Condition/Present Weather < > TMP - Temperature in Fahrenheit < > DP - Dew Point in Fahrenheit < > RH - Relative Humidity in Percent < > WIND - Direction (from) and Speed in MPH < > PRES - Mean Sea Level Pressure (inches of Hg) < > WCI - Wind Chill Index < > VSB - Visibility in Miles < > HX - Heat Index < > TC - Temperature in Celsius < > VRB - Varibale Wind Direction < > < >>>>>>>>>>>>>>>>>>>>>>>>>>>> KEY <<<<<<<<<<<<<<<<<<<<<<<<<<<

USA.gov is the U.S. government's official web portal to all federal, state and local government web resources and services.